Regional Weather Roundup
Issued by NWS Albany, NY

Home | Current Version | Previous Version | Text Only | Print | Product List | Glossary On
Versions: 1 2 3 4 5 6 7 8 9 10 11 12 13 14 15 16 17 18 19 20 21 22 23 24 25 26 27
000
ASUS41 KALY 271110
RWRALY

NEW YORK STATE HOURLY WEATHER ROUNDUP
NATIONAL WEATHER SERVICE ALBANY NY
700 AM EDT SAT MAY 27 2017

NOTE: "FAIR" INDICATES FEW OR NO CLOUDS BELOW 12,000 FEET WITH NO
SIGNIFICANT WEATHER AND/OR NO OBSTRUCTIONS TO VISIBILITY.

NYZ032-033-038>043-046>054-057>066-NYZ062>081-082-084-271200-
EAST


CITY           SKY/WX    TMP DP  RH WIND       PRES   REMARKS
ALBANY         MOSUNNY   55  51  86 N6        29.88R
GLENS FALLS    NOT AVBL
POUGHKEEPSIE   CLOUDY    56  54  93 CALM      29.87R
NEWBURGH       PTSUNNY   55  54  94 CALM      29.89R
MONTGOMERY     CLOUDY    58  54  86 S3        29.87R
WHITE PLAINS   PTSUNNY   58  53  84 N6        29.87R
ISLIP          PTSUNNY   58  56  93 NW7       29.86S
NEW YORK CITY  MOSUNNY   63  54  72 NW8       29.87R
CENTRAL PARK   SUNNY     61  55  81 VRB5      29.90R
$$

NYZ005>009-017-018-044>046-055-056-271200-
CENTRAL


CITY           SKY/WX    TMP DP  RH WIND       PRES   REMARKS
FULTON         RAIN      56  55  97 CALM      29.89R FOG
SYRACUSE       DRIZZLE   55  55 100 NE3       29.88R FOG
ROME           CLOUDY    54  52  93 CALM      29.90R
ELMIRA         CLOUDY    58  53  84 CALM      29.89R
BINGHAMTON     CLOUDY    53  53 100 NW7       29.89R FOG
MONTICELLO     PTSUNNY   55  55 100 W5        29.90R
$$

NYZ026>034-041>043-087-271200-
NORTH


CITY           SKY/WX    TMP DP  RH WIND       PRES   REMARKS
WATERTOWN      CLOUDY    53  52  96 E3        29.89R
FORT DRUM      NOT AVBL
OGDENSBURG     PTSUNNY   52  51  98 CALM      29.91R
MASSENA        CLOUDY    53  52  96 CALM      29.91S
SARANAC LAKE   CLOUDY    43  43 100 CALM      29.89R FOG
PLATTSBURGH    CLOUDY    52  47  83 CALM      29.89R
$$

NYZ001>004-010>016-019>021-085-271200-
WEST


CITY           SKY/WX    TMP DP  RH WIND       PRES   REMARKS
NIAGARA FALLS  CLOUDY    57  53  86 SW3       29.89R FOG
BUFFALO        CLOUDY    55  52  89 SW8       29.90R
DUNKIRK        SUNNY     52  52 100 S3        29.91R
JAMESTOWN      CLOUDY    48  46  93 CALM      29.91S VSB<1/4
WELLSVILLE     CLOUDY    54  51  90 SW3       29.92S
ROCHESTER      CLOUDY    57  55  93 W5        29.89S
PENN YAN       CLOUDY    58  52  80 W3        29.90R
$$

             KEY
       WCI = WIND CHILL INDEX
       VSB = VISIBILITY
       HX  = HEAT INDEX
$$




USA.gov is the U.S. government's official web portal to all federal, state and local government web resources and services.